Вернуться в каталог

VENERA 9 BUS

АктивенНаукаVLEO
NORAD 7915·PAYLOAD·🇷🇺 Russia

Запущен Jun 8, 1975 с Baikonur Cosmodrome

Loading…

Ближайшие Пролёты (ближайшие 24 часа)

TLE

УстаревшееSource: Space-Track

Эпоха: Jun 8, 1975, 03:54 UTC

1 07915U 75050  A 75159.16307445  .00087766 +00000-0 +00000-0 0  9990
2 07915 051.3781 304.1934 0191385 357.0104 002.9695 15.88322875000011

Отслеживайте VENERA 9 BUS в реальном времени с AllMySat

Download on the App Store